EW8973 Weather Reports


Display with metric or nautical units.
time (UTC)temp
F
wind
direction
speed
MPH
gust
MPH
rain 1hr
in
rain 24hr
in
rain mn
in
humidity
%
barometer
mb
20200330070533 60 328 2.0 7.0 0.00 0.00 0.00 33 1017.1
20200330070152 60 302 2.0 7.0 0.00 0.00 0.00 34 1016.9
20200330065540 59 320 1.0 4.0 0.00 0.00 0.00 34 1016.9
20200330065032 59 325 0.0 5.0 0.00 0.00 0.00 34 1016.8
20200330064551 59 319 1.0 5.0 0.00 0.00 0.00 35 1016.8
20200330064039 59 298 1.0 6.0 0.00 0.00 0.00 36 1016.8
20200330063539 59 290 1.0 6.0 0.00 0.00 0.00 36 1016.8
20200330063104 59 329 1.0 5.0 0.00 0.00 0.00 35 1016.8
20200330062530 59 290 1.0 6.0 0.00 0.00 0.00 35 1016.7
20200330062036 59 301 0.0 6.0 0.00 0.00 0.00 33 1016.8
20200330061547 59 318 0.0 4.0 0.00 0.00 0.00 33 1016.7
20200330061029 59 326 0.0 4.0 0.00 0.00 0.00 32 1016.7
20200330060528 60 317 0.0 4.0 0.00 0.00 0.00 32 1016.7
20200330060032 60 284 0.0 2.0 0.00 0.00 0.00 31 1016.6
20200330055527 61 266 0.0 4.0 0.00 0.00 0.00 29 1016.5
20200330055028 61 280 0.0 4.0 0.00 0.00 0.00 29 1016.5
20200330054713 60 274 0.0 3.0 0.00 0.00 0.00 31 1016.5
20200330054026 60 286 0.0 1.0 0.00 0.00 0.00 31 1016.4
20200330053537 61 272 0.0 3.0 0.00 0.00 0.00 31 1016.5
20200330053115 61 309 0.0 3.0 0.00 0.00 0.00 30 1016.4
20200330052529 60 263 0.0 3.0 0.00 0.00 0.00 32 1016.4
20200330052024 58 266 0.0 1.0 0.00 0.00 0.00 36 1016.3
20200330051649 58 233 0.0 0.0 0.00 0.00 0.00 39 1016.3
20200330051023 58 233 0.0 0.0 0.00 0.00 0.00 40 1016.3
20200330050530 58 233 0.0 0.0 0.00 0.00 0.00 40 1016.3
20200330050131 58 233 0.0 0.0 0.00 0.00 0.00 39 1016.4
20200330045526 58 233 0.0 0.0 0.00 0.00 0.00 39 1016.4
20200330045021 59 233 0.0 0.0 0.00 0.00 0.00 38 1016.3
20200330044545 59 233 0.0 0.0 0.00 0.00 0.00 37 1016.2
20200330044018 59 233 0.0 0.0 0.00 0.00 0.00 37 1016.2
20200330043519 60 233 0.0 0.0 0.00 0.00 0.00 36 1016.2
20200330043025 60 233 0.0 0.0 0.00 0.00 0.00 35 1016.1
20200330042518 60 233 0.0 0.0 0.00 0.00 0.00 34 1016.0
20200330042018 60 233 0.0 0.0 0.00 0.00 0.00 34 1016.0
20200330041525 61 233 0.0 0.0 0.00 0.00 0.00 33 1015.8
20200330041017 61 233 0.0 0.0 0.00 0.00 0.00 32 1016.0
20200330040517 61 233 0.0 0.0 0.00 0.00 0.00 32 1015.9
20200330040026 62 233 0.0 0.0 0.00 0.00 0.00 32 1015.8
20200330035516 62 233 0.0 0.0 0.00 0.00 0.00 30 1015.7
20200330035016 62 233 0.0 0.0 0.00 0.00 0.00 29 1015.6
20200330034520 63 233 0.0 0.0 0.00 0.00 0.00 29 1015.6
20200330034015 63 233 0.0 0.0 0.00 0.00 0.00 29 1015.6
20200330033525 63 233 0.0 0.0 0.00 0.00 0.00 28 1015.5
20200330033109 64 233 0.0 0.0 0.00 0.00 0.00 27 1015.5
20200330032527 64 233 0.0 0.0 0.00 0.00 0.00 26 1015.5
20200330032016 64 233 0.0 0.0 0.00 0.00 0.00 26 1015.3
20200330031601 65 233 0.0 0.0 0.00 0.00 0.00 25 1015.3
20200330031018 65 224 0.0 0.0 0.00 0.00 0.00 24 1015.4
20200330030515 65 224 0.0 1.0 0.00 0.00 0.00 23 1015.3
20200330030047 66 232 0.0 1.0 0.00 0.00 0.00 23 1015.3
20200330025514 66 226 0.0 0.0 0.00 0.00 0.00 23 1015.2
20200330025014 66 246 0.0 0.0 0.00 0.00 0.00 22 1015.2
20200330024541 67 249 0.0 0.0 0.00 0.00 0.00 22 1015.2
20200330024014 67 245 0.0 0.0 0.00 0.00 0.00 21 1015.1
20200330023514 67 257 0.0 4.0 0.00 0.00 0.00 21 1015.1
20200330023033 67 265 0.0 4.0 0.00 0.00 0.00 21 1014.9
20200330022523 67 288 0.0 3.0 0.00 0.00 0.00 21 1015.0
20200330022014 68 253 0.0 3.0 0.00 0.00 0.00 21 1014.9
20200330021547 68 237 0.0 1.0 0.00 0.00 0.00 21 1014.9
20200330021018 68 251 0.0 3.0 0.00 0.00 0.00 20 1014.8
20200330020513 69 234 0.0 3.0 0.00 0.00 0.00 20 1014.8
20200330020025 69 233 0.0 4.0 0.00 0.00 0.00 20 1014.8
20200330015514 69 256 0.0 4.0 0.00 0.00 0.00 19 1014.8
20200330015014 70 256 0.0 5.0 0.00 0.00 0.00 19 1014.8
20200330014520 70 266 0.0 5.0 0.00 0.00 0.00 19 1014.7
20200330014011 71 231 0.0 5.0 0.00 0.00 0.00 18 1014.6
20200330013511 71 247 1.0 6.0 0.00 0.00 0.00 17 1014.6
20200330013031 71 293 2.0 9.0 0.00 0.00 0.00 17 1014.6
20200330012511 72 239 2.0 9.0 0.00 0.00 0.00 17 1014.8
20200330012012 72 233 0.0 7.0 0.00 0.00 0.00 17 1014.7
20200330011530 72 250 2.0 9.0 0.00 0.00 0.00 17 1014.7
20200330011011 73 246 0.0 6.0 0.00 0.00 0.00 17 1014.5
20200330010510 73 226 1.0 10.0 0.00 0.00 0.00 16 1014.5
20200330010042 73 214 4.0 11.0 0.00 0.00 0.00 16 1014.5
20200330005509 73 225 4.0 11.0 0.00 0.00 0.00 16 1014.5
20200330005009 73 243 3.0 10.0 0.00 0.00 0.00 17 1014.4
20200330004008 74 239 2.0 11.0 0.00 0.00 0.00 16 1014.4
20200330003514 73 244 3.0 11.0 0.00 0.00 0.00 16 1014.4
20200330003056 74 275 4.0 10.0 0.00 0.00 0.00 16 1014.4
20200330002514 74 257 4.0 12.0 0.00 0.00 0.00 15 1014.4
20200330002008 74 199 3.0 12.0 0.00 0.00 0.00 16 1014.4
20200330001534 74 231 1.0 10.0 0.00 0.00 0.00 16 1014.4
20200330001022 74 237 3.0 10.0 0.00 0.00 0.00 15 1014.5
20200330000505 74 231 3.0 12.0 0.00 0.00 0.00 15 1014.5
20200330000007 73 291 4.0 13.0 0.00 0.00 0.00 15 1014.5
20200329235505 74 249 5.0 13.0 0.00 0.00 0.00 15 1014.6
20200329235007 74 217 5.0 12.0 0.00 0.00 0.00 15 1014.6
20200329234505 74 277 5.0 10.0 0.00 0.00 0.00 15 1014.5
20200329234004 74 233 4.0 13.0 0.00 0.00 0.00 15 1014.5
20200329233504 74 172 3.0 13.0 0.00 0.00 0.00 16 1014.5
20200329233026 74 285 2.0 7.0 0.00 0.00 0.00 16 1014.5
20200329232503 73 306 1.0 8.0 0.00 0.00 0.00 17 1014.6
20200329232002 74 266 2.0 8.0 0.00 0.00 0.00 17 1014.7
20200329231509 74 259 2.0 13.0 0.00 0.00 0.00 18 1014.8
20200329231003 74 183 4.0 14.0 0.00 0.00 0.00 17 1014.7
20200329230500 74 229 6.0 14.0 0.00 0.00 0.00 17 1014.7
20200329230115 74 218 7.0 14.0 0.00 0.00 0.00 17 1014.7
20200329225059 75 264 4.0 15.0 0.00 0.00 0.00 17 1014.9
20200329224645 75 272 5.0 12.0 0.00 0.00 0.00 17 1014.9
20200329224102 74 197 4.0 12.0 0.00 0.00 0.00 17 1015.0
20200329223556 74 278 2.0 7.0 0.00 0.00 0.00 16 1015.2
20200329223146 74 193 2.0 11.0 0.00 0.00 0.00 17 1015.3
20200329222554 74 234 2.0 12.0 0.00 0.00 0.00 17 1015.3
20200329222054 74 184 5.0 12.0 0.00 0.00 0.00 17 1015.4
20200329221736 73 198 3.0 10.0 0.00 0.00 0.00 17 1015.6
20200329221107 73 167 1.0 15.0 0.00 0.00 0.00 17 1015.6
20200329220552 73 230 4.0 15.0 0.00 0.00 0.00 17 1015.6
20200329220211 74 289 5.0 14.0 0.00 0.00 0.00 17 1015.7
20200329215550 73 274 1.0 12.0 0.00 0.00 0.00 17 1015.8
20200329215053 74 218 7.0 12.0 0.00 0.00 0.00 17 1016.0
20200329214745 74 163 5.0 12.0 0.00 0.00 0.00 16 1016.0
20200329214048 74 138 3.0 12.0 0.00 0.00 0.00 17 1016.0
20200329213548 74 231 3.0 10.0 0.00 0.00 0.00 16 1016.1
20200329213249 74 200 4.0 12.0 0.00 0.00 0.00 15 1016.2
20200329212546 74 205 6.0 12.0 0.00 0.00 0.00 15 1016.1
20200329212045 73 259 1.0 11.0 0.00 0.00 0.00 16 1016.2
20200329211645 74 232 5.0 11.0 0.00 0.00 0.00 16 1016.5
20200329211042 74 189 3.0 10.0 0.00 0.00 0.00 17 1016.5
20200329210551 73 212 4.0 10.0 0.00 0.00 0.00 17 1016.6
20200329210136 73 296 1.0 12.0 0.00 0.00 0.00 16 1016.6
20200329205544 73 198 2.0 12.0 0.00 0.00 0.00 16 1016.6
20200329205040 73 186 3.0 11.0 0.00 0.00 0.00 17 1016.6
20200329204621 73 142 5.0 11.0 0.00 0.00 0.00 17 1016.5
20200329204040 73 161 4.0 10.0 0.00 0.00 0.00 17 1016.6
20200329203557 73 212 3.0 8.0 0.00 0.00 0.00 17 1016.6
20200329203110 73 129 3.0 8.0 0.00 0.00 0.00 18 1016.6
20200329202617 73 155 1.0 8.0 0.00 0.00 0.00 16 1016.7
20200329202058 72 194 1.0 8.0 0.00 0.00 0.00 17 1016.9
20200329201545 72 160 3.0 7.0 0.00 0.00 0.00 17 1017.0
20200329201033 72 265 2.0 8.0 0.00 0.00 0.00 18 1017.0
20200329200536 72 112 1.0 11.0 0.00 0.00 0.00 16 1017.0
20200329200106 72 200 4.0 11.0 0.00 0.00 0.00 16 1017.1
20200329195531 72 218 1.0 5.0 0.00 0.00 0.00 17 1017.2
20200329195036 72 192 0.0 11.0 0.00 0.00 0.00 17 1017.3
20200329194610 72 202 1.0 11.0 0.00 0.00 0.00 18 1017.4
20200329194028 71 207 3.0 9.0 0.00 0.00 0.00 18 1017.3
20200329193527 71 214 1.0 9.0 0.00 0.00 0.00 19 1017.4
20200329193040 71 181 4.0 9.0 0.00 0.00 0.00 20 1017.6
20200329192525 71 133 0.0 7.0 0.00 0.00 0.00 20 1017.5
20200329192025 71 212 3.0 9.0 0.00 0.00 0.00 19 1017.7
20200329191551 71 148 0.0 9.0 0.00 0.00 0.00 20 1017.7
20200329191022 71 221 0.0 6.0 0.00 0.00 0.00 20 1017.9
20200329190521 70 202 2.0 6.0 0.00 0.00 0.00 20 1018.0
20200329190111 70 170 2.0 6.0 0.00 0.00 0.00 20 1018.1
20200329185528 70 153 2.0 6.0 0.00 0.00 0.00 20 1018.2
20200329185018 69 146 2.0 6.0 0.00 0.00 0.00 21 1018.2
20200329184521 69 240 2.0 6.0 0.00 0.00 0.00 22 1018.2
20200329184018 70 250 2.0 6.0 0.00 0.00 0.00 20 1018.2
20200329183519 70 146 2.0 5.0 0.00 0.00 0.00 21 1018.2
20200329183037 69 168 0.0 5.0 0.00 0.00 0.00 21 1018.3
20200329182516 69 102 1.0 5.0 0.00 0.00 0.00 24 1018.3
20200329182017 69 169 0.0 5.0 0.00 0.00 0.00 24 1018.4
20200329181517 69 134 2.0 5.0 0.00 0.00 0.00 23 1018.5
20200329181034 69 210 0.0 4.0 0.00 0.00 0.00 25 1018.5
20200329180517 68 157 1.0 4.0 0.00 0.00 0.00 27 1018.6
20200329180010 68 165 0.0 3.0 0.00 0.00 0.00 27 1018.7
20200329175510 68 178 0.0 3.0 0.00 0.00 0.00 26 1018.7
20200329175022 68 112 0.0 4.0 0.00 0.00 0.00 28 1018.8
20200329174531 67 103 1.0 4.0 0.00 0.00 0.00 28 1018.8
20200329174014 68 65 0.0 2.0 0.00 0.00 0.00 29 1018.8
20200329173507 67 221 0.0 3.0 0.00 0.00 0.00 30 1018.7
20200329173027 66 125 0.0 3.0 0.00 0.00 0.00 30 1018.8
20200329172506 67 58 0.0 1.0 0.00 0.00 0.00 29 1018.8
20200329172007 66 215 0.0 2.0 0.00 0.00 0.00 30 1018.9
20200329171503 65 236 0.0 3.0 0.00 0.00 0.00 30 1018.8
20200329171009 65 163 1.0 3.0 0.00 0.00 0.00 30 1018.9
20200329170503 65 142 0.0 4.0 0.00 0.00 0.00 30 1018.9
20200329170001 65 108 1.0 5.0 0.00 0.00 0.00 31 1018.8
20200329165509 65 78 1.0 5.0 0.00 0.00 0.00 30 1018.8
20200329165100 65 165 0.0 3.0 0.00 0.00 0.00 33 1018.8
20200329164637 64 334 0.0 4.0 0.00 0.00 0.00 32 1018.9
20200329164106 63 53 1.0 4.0 0.00 0.00 0.00 33 1018.9
20200329163557 63 298 0.0 0.0 0.00 0.00 0.00 33 1019.0
20200329163124 63 3 0.0 0.0 0.00 0.00 0.00 34 1019.0
20200329162554 62 4 0.0 0.0 0.00 0.00 0.00 35 1019.0
20200329162054 62 297 0.0 0.0 0.00 0.00 0.00 36 1018.9
20200329161644 62 39 0.0 2.0 0.00 0.00 0.00 36 1018.9
20200329161052 61 82 0.0 2.0 0.00 0.00 0.00 36 1018.9
20200329160558 61 48 0.0 0.0 0.00 0.00 0.00 37 1019.0
20200329160123 61 89 0.0 2.0 0.00 0.00 0.00 39 1019.0
20200329155605 60 62 0.0 2.0 0.00 0.00 0.00 40 1019.1
20200329155055 59 68 0.0 1.0 0.00 0.00 0.00 43 1019.1
20200329154705 58 52 0.0 3.0 0.00 0.00 0.00 44 1019.0
20200329154049 58 39 1.0 3.0 0.00 0.00 0.00 45 1019.0
20200329153557 57 8 0.0 3.0 0.00 0.00 0.00 45 1019.0
20200329153140 57 4 0.0 3.0 0.00 0.00 0.00 47 1019.0
20200329152540 56 34 1.0 5.0 0.00 0.00 0.00 47 1019.0
20200329152055 56 345 0.0 5.0 0.00 0.00 0.00 49 1019.0
20200329151604 55 349 1.0 4.0 0.00 0.00 0.00 49 1019.0
20200329151039 55 4 0.0 4.0 0.00 0.00 0.00 51 1019.0
20200329150534 54 23 0.0 3.0 0.00 0.00 0.00 52 1019.1
20200329150054 54 354 0.0 3.0 0.00 0.00 0.00 53 1019.1
20200329145534 53 330 0.0 4.0 0.00 0.00 0.00 55 1019.0
20200329145034 52 347 0.0 4.0 0.00 0.00 0.00 56 1018.9
20200329144716 52 357 1.0 3.0 0.00 0.00 0.00 56 1019.0
20200329144037 52 13 0.0 2.0 0.00 0.00 0.00 57 1019.0
20200329143533 51 2 0.0 0.0 0.00 0.00 0.00 58 1019.0
20200329143052 51 347 0.0 0.0 0.00 0.00 0.00 59 1019.0
20200329142537 50 359 0.0 0.0 0.00 0.00 0.00 61 1019.0
20200329142037 50 8 0.0 0.0 0.00 0.00 0.00 61 1018.9
20200329141609 49 331 0.0 0.0 0.00 0.00 0.00 62 1018.9
20200329141040 49 328 0.0 0.0 0.00 0.00 0.00 62 1018.8
20200329140533 49 328 0.0 0.0 0.00 0.00 0.00 62 1018.8
20200329140050 49 330 0.0 0.0 0.00 0.00 0.00 62 1018.7
20200329135533 49 327 0.0 0.0 0.00 0.00 0.00 62 1018.7
20200329135034 49 322 0.0 0.0 0.00 0.00 0.00 62 1018.6
20200329134650 49 322 0.0 0.0 0.00 0.00 0.00 62 1018.6
20200329134030 48 322 0.0 0.0 0.00 0.00 0.00 62 1018.5
20200329133530 48 347 0.0 3.0 0.00 0.00 0.00 62 1018.5
20200329133040 48 324 0.0 3.0 0.00 0.00 0.00 62 1018.4
20200329132555 48 328 1.0 3.0 0.00 0.00 0.00 61 1018.4
20200329132029 48 330 0.0 2.0 0.00 0.00 0.00 61 1018.4
20200329131606 48 327 0.0 2.0 0.00 0.00 0.00 61 1018.4
20200329131046 48 338 0.0 2.0 0.00 0.00 0.00 60 1018.3
20200329130528 49 340 0.0 2.0 0.00 0.00 0.00 60 1018.3
20200329130028 49 320 0.0 2.0 0.00 0.00 0.00 60 1018.2
20200329125527 49 326 0.0 2.0 0.00 0.00 0.00 60 1018.2
20200329125027 49 322 0.0 3.0 0.00 0.00 0.00 60 1018.1
20200329124559 49 321 1.0 3.0 0.00 0.00 0.00 60 1018.0
20200329124035 49 320 1.0 3.0 0.00 0.00 0.00 61 1018.1
20200329123526 49 314 0.0 2.0 0.00 0.00 0.00 62 1018.1
20200329123137 49 327 0.0 1.0 0.00 0.00 0.00 63 1018.1
20200329122547 49 313 0.0 2.0 0.00 0.00 0.00 63 1018.0
20200329122026 49 324 0.0 2.0 0.00 0.00 0.00 63 1018.0
20200329121545 49 323 0.0 2.0 0.00 0.00 0.00 63 1017.9
20200329121023 49 326 0.0 2.0 0.00 0.00 0.00 63 1017.9
20200329120537 49 322 0.0 0.0 0.00 0.00 0.00 63 1017.8
20200329120053 49 335 0.0 0.0 0.00 0.00 0.00 63 1017.8
20200329115536 49 335 0.0 0.0 0.00 0.00 0.00 63 1017.9
20200329115047 49 335 0.0 0.0 0.00 0.00 0.00 61 1018.0
20200329114529 49 335 0.0 0.0 0.00 0.00 0.00 61 1018.0
20200329114031 49 328 0.0 0.0 0.00 0.00 0.00 61 1018.0
20200329113519 50 328 0.0 0.0 0.00 0.00 0.00 62 1018.0
20200329113034 50 328 0.0 0.0 0.00 0.00 0.00 60 1018.0
20200329112517 50 328 0.0 0.0 0.00 0.00 0.00 60 1017.9
20200329112019 50 328 0.0 0.0 0.00 0.00 0.00 59 1017.9
20200329111538 50 328 0.0 0.0 0.00 0.00 0.00 59 1017.9
20200329111022 50 328 0.0 0.0 0.00 0.00 0.00 59 1017.8
20200329110020 50 328 0.0 0.0 0.00 0.00 0.00 59 1017.9
20200329105514 50 328 0.0 0.0 0.00 0.00 0.00 59 1017.9
20200329105035 50 328 0.0 0.0 0.00 0.00 0.00 60 1017.9
20200329104541 50 328 0.0 0.0 0.00 0.00 0.00 60 1017.9
20200329104013 50 328 0.0 0.0 0.00 0.00 0.00 60 1018.0
20200329103512 51 328 0.0 0.0 0.00 0.00 0.00 58 1017.9
20200329103013 51 328 0.0 0.0 0.00 0.00 0.00 56 1018.0
20200329102509 52 328 0.0 0.0 0.00 0.00 0.00 57 1018.0
20200329102008 52 328 0.0 0.0 0.00 0.00 0.00 54 1018.0
20200329101512 52 328 0.0 0.0 0.00 0.00 0.00 53 1017.9
20200329101011 53 328 0.0 0.0 0.00 0.00 0.00 53 1017.9
20200329100508 53 328 0.0 0.0 0.00 0.00 0.00 52 1017.9
20200329100008 53 328 0.0 0.0 0.00 0.00 0.00 52 1017.8
20200329095505 53 328 0.0 0.0 0.00 0.00 0.00 52 1017.8
20200329095024 53 329 0.0 0.0 0.00 0.00 0.00 52 1017.9
20200329094508 53 329 0.0 0.0 0.00 0.00 0.00 53 1017.9
20200329094006 53 329 0.0 0.0 0.00 0.00 0.00 53 1017.9
20200329093504 53 329 0.0 0.0 0.00 0.00 0.00 52 1017.8
20200329093012 53 329 0.0 0.0 0.00 0.00 0.00 52 1017.8
20200329092504 53 329 0.0 0.0 0.00 0.00 0.00 52 1017.7
20200329092003 53 329 0.0 0.0 0.00 0.00 0.00 52 1017.8
20200329091511 53 324 0.0 0.0 0.00 0.00 0.00 52 1017.8
20200329091003 53 324 0.0 0.0 0.00 0.00 0.00 53 1017.8
20200329090502 53 324 0.0 0.0 0.00 0.00 0.00 52 1017.9
20200329090010 53 324 0.0 2.0 0.00 0.00 0.00 52 1017.9
20200329085506 53 324 0.0 2.0 0.00 0.00 0.00 52 1018.0
20200329085001 53 317 0.0 0.0 0.00 0.00 0.00 52 1018.0
20200329084658 53 318 0.0 1.0 0.00 0.00 0.00 52 1018.1
20200329084123 53 326 0.0 1.0 0.00 0.00 0.00 51 1018.0
20200329083605 54 330 0.0 1.0 0.00 0.00 0.00 51 1018.1
20200329083257 54 318 0.0 2.0 0.00 0.00 0.00 51 1018.1
20200329082559 54 328 0.0 3.0 0.00 0.00 0.00 51 1018.2
20200329082102 53 328 1.0 3.0 0.00 0.00 0.00 51 1018.3
20200329081849 53 316 0.0 1.0 0.00 0.00 0.00 52 1018.4
20200329081110 53 330 0.0 2.0 0.00 0.00 0.00 53 1018.4
20200329080555 53 332 0.0 3.0 0.00 0.00 0.00 52 1018.6
20200329080216 53 340 1.0 3.0 0.00 0.00 0.00 53 1018.6
20200329075603 53 333 0.0 0.0 0.00 0.00 0.00 54 1018.8
20200329075101 53 296 0.0 3.0 0.00 0.00 0.00 54 1018.8
20200329074640 53 317 0.0 3.0 0.00 0.00 0.00 54 1018.8
20200329074056 53 308 0.0 2.0 0.00 0.00 0.00 54 1018.8
20200329073601 54 334 0.0 1.0 0.00 0.00 0.00 52 1018.8
20200329073118 54 317 0.0 4.0 0.00 0.00 0.00 50 1018.8
20200329072550 54 321 1.0 4.0 0.00 0.00 0.00 51 1018.9
20200329072053 54 317 0.0 3.0 0.00 0.00 0.00 49 1018.9
20200329071617 55 288 0.0 2.0 0.00 0.00 0.00 49 1019.0
20200329071111 55 264 0.0 2.0 0.00 0.00 0.00 47 1018.9